Lanai City, HI

4:53 AM HST on April 24, 2017 (GMT -1000)
Lanai City

Weather History for PHNY - July, 2013

Change the Weather History Date:

Tuesday, July 23, 2013

  Actual Average Record
Temperature  
Mean Temperature 74 °F -  
Max Temperature 80 °F 83 °F 84 °F (1978)
Min Temperature 68 °F 66 °F 58 °F (1955)
Cooling Degree Days 10    
Growing Degree Days 24 (Base 50)    
Moisture  
Dew Point 70 °F    
Average Humidity 82    
Maximum Humidity 100    
Minimum Humidity 70    
Precipitation  
Precipitation 0.00 in - - ()
Sea Level Pressure  
Sea Level Pressure 30.03 in    
Wind  
Wind Speed 8 mph (NNW)    
Max Wind Speed 14 mph    
Max Gust Speed -    
Visibility 10 miles    
Events Rain    
Averages and records for this station are not official NWS values.
T = Trace of Precipitation, MM = Missing Value Source: NWS Daily Summary

Daily Weather History Graph

Daily Weather History Graph

Search for Another Location

Airport or City:

Trip Planner

Search our weather history database for the weather conditions in past years. The results will help you decide how hot, cold, wet, or windy it might be!

Date:

Astronomy

Jul. 23, 2013 Rise Set
Actual Time 5:58 AM HST 7:09 PM HST
Civil Twilight 5:34 AM HST 7:33 PM HST
Nautical Twilight 5:06 AM HST 8:01 PM HST
Astronomical Twilight 4:37 AM HST 8:31 PM HST
Moon 8:07 PM HST (7/23) 7:03 AM HST (7/23)
Length of Visible Light 13h 58m
Length of Day
13h 10m
Full, 98% of the Moon is Illuminated
Jul 23
Full
Jul 29
Last Quarter
Aug 6
New
Aug 14
First Quarter
Aug 20
Full

Hourly Weather History & Observations

Time (HST) Temp. Heat Index Dew Point Humidity Pressure Visibility Wind Dir Wind Speed Gust Speed Precip Events Conditions
6:50 AM 73.4 °F - 71.6 °F 94% 30.05 in 10.0 mi NNE 8.1 mph - N/A   Clear
7:34 AM 78.8 °F - 69.8 °F 74% 30.05 in 10.0 mi West 6.9 mph - 0.00 in Rain Light Rain
7:43 AM 78.8 °F - 69.8 °F 74% 30.04 in 10.0 mi West 8.1 mph - 0.00 in   Overcast
7:50 AM 78.8 °F - 69.8 °F 74% 30.06 in 10.0 mi North 10.4 mph - N/A   Mostly Cloudy
7:56 AM 78.8 °F - 69.8 °F 74% 30.04 in 10.0 mi West 6.9 mph - N/A   Overcast
8:13 AM 78.8 °F - 71.6 °F 78% 30.04 in 10.0 mi WNW 8.1 mph - N/A   Overcast
8:20 AM 78.8 °F - 71.6 °F 78% 30.04 in 10.0 mi NW 8.1 mph - N/A   Overcast
8:30 AM 77.0 °F - 71.6 °F 83% 30.04 in 10.0 mi WNW 6.9 mph - N/A   Overcast
8:38 AM 77.0 °F - 71.6 °F 83% 30.04 in 10.0 mi NW 6.9 mph - N/A   Overcast
8:50 AM 80.6 °F 83.9 °F 69.8 °F 70% 30.07 in 10.0 mi North 9.2 mph - N/A   Scattered Clouds
8:56 AM 75.9 °F - 70.9 °F 84% 29.98 in 10.0 mi WNW 6.9 mph - N/A   Overcast
9:11 AM 75.2 °F - 71.6 °F 89% 30.04 in 10.0 mi WNW 5.8 mph - N/A   Overcast
9:34 AM 77.0 °F - 69.8 °F 78% 30.04 in 10.0 mi NNE 6.9 mph - N/A   Mostly Cloudy
9:48 AM 77.0 °F - 69.8 °F 78% 30.04 in 10.0 mi NE 12.7 mph - N/A   Scattered Clouds
9:50 AM 80.6 °F 83.9 °F 69.8 °F 70% 30.07 in 10.0 mi SSW 6.9 mph - N/A   Mostly Cloudy
9:56 AM 75.9 °F - 68.0 °F 76% 29.98 in 10.0 mi NE 13.8 mph - N/A   Partly Cloudy
10:45 AM 78.8 °F - 69.8 °F 74% 30.08 in 10.0 mi SW 5.8 mph - N/A   Mostly Cloudy
10:56 AM 74.8 °F - 68.9 °F 82% 29.99 in 10.0 mi NNE 6.9 mph - N/A   Partly Cloudy
11:55 AM 80.6 °F 83.9 °F 69.8 °F 70% 30.07 in 10.0 mi SSW 8.1 mph - N/A   Mostly Cloudy
11:56 AM 72.9 °F - 68.9 °F 87% 30.00 in 10.0 mi NE 6.9 mph - N/A   Clear
12:56 PM 72.9 °F - 70.0 °F 91% 30.01 in 10.0 mi ESE 8.1 mph - N/A   Clear
1:56 PM 70.9 °F - 70.0 °F 97% 30.03 in 10.0 mi East 5.8 mph - N/A   Clear
2:55 PM 78.8 °F - 69.8 °F 74% 30.05 in 10.0 mi WSW 4.6 mph - N/A   Overcast
2:56 PM 77.9 °F - 68.9 °F 74% 29.98 in 10.0 mi Variable 5.8 mph - 0.00 in Rain Light Rain
3:20 PM 69.8 °F - 69.8 °F 100% 30.09 in 10.0 mi ENE 3.5 mph - N/A   Mostly Cloudy
3:50 PM 78.8 °F - 69.8 °F 74% 30.04 in 10.0 mi West 8.1 mph - N/A   Mostly Cloudy
3:56 PM 70.0 °F - 68.9 °F 96% 30.02 in 10.0 mi NE 4.6 mph - N/A   Scattered Clouds
4:56 PM 70.0 °F - 68.9 °F 96% 30.01 in 10.0 mi East 4.6 mph - N/A   Partly Cloudy
5:37 PM 69.8 °F - 69.8 °F 100% 30.06 in 10.0 mi ENE 5.8 mph - N/A   Mostly Cloudy
5:56 PM 68.9 °F - 68.9 °F 100% 29.99 in 10.0 mi ENE 6.9 mph - N/A   Mostly Cloudy
6:56 PM 70.9 °F - 68.0 °F 91% 29.97 in 10.0 mi ENE 9.2 mph - N/A   Mostly Cloudy
7:09 PM 69.8 °F - 68.0 °F 94% 30.03 in 10.0 mi NE 9.2 mph - N/A   Scattered Clouds
7:47 PM 71.6 °F - 68.0 °F 88% 30.03 in 10.0 mi NNE 11.5 mph - N/A   Mostly Cloudy
7:56 PM 70.9 °F - 68.9 °F 93% 29.96 in 10.0 mi NNE 12.7 mph - N/A   Mostly Cloudy
8:56 PM 72.0 °F - 66.9 °F 84% 29.97 in 10.0 mi NE 12.7 mph - N/A   Overcast
9:56 PM 72.0 °F - 66.9 °F 84% 29.98 in 10.0 mi NE 9.2 mph - N/A   Overcast
10:56 PM 72.9 °F - 68.0 °F 85% 29.99 in 10.0 mi NE 13.8 mph - N/A   Overcast
11:26 PM 73.4 °F - 66.2 °F 78% 30.05 in 10.0 mi NNE 12.7 mph - N/A   Scattered Clouds